Hourly Data Report for June 02, 2021

MANIWAKI AIRPORT
QUEBEC
Current Station Operator: ECCC - MSC

46°16'29.000" N
75°59'31.000" W
199.70 m
7034482
71721
WMJ

Download Data

Hourly Data (June 2021)
Hourly Data Report for June 2, 2021
TIME
LST
Temp Definition
°C
Dew Point Definition
°C
Rel Hum Definition
%
Precip. Amount Definition
mm

Wind Dir Definition
10's deg

Wind Spd Definition
km/h
Visibility Definition
km
Stn Press Definition
kPa
Hmdx Definition


Wind Chill Definition


Weather Definition


00:00 9.1 7.3 88 0.0 22 2   99.58     LegendNANA
01:00 8.2 7.3 94 0.0 13 4   99.61     LegendNANA
02:00 7.0 6.4 96 0.0 0 1   99.61     LegendNANA
03:00 6.6 6.0 96 0.0 2 1   99.62     LegendNANA
04:00 6.2 5.9 98 0.0 23 2   99.62     LegendNANA
05:00 6.4 5.4 93 0.0   0   99.67     LegendNANA
06:00 10.9 8.3 84 0.0 20 7   99.72     LegendNANA
07:00 16.6 8.7 59 0.0 20 6   99.72     LegendNANA
08:00 18.8 8.2 50 0.0 24 11   99.75     LegendNANA
09:00 20.3 8.2 46 0.0 20 12   99.71     LegendNANA
10:00 22.7 7.4 37 0.0 22 10   99.64     LegendNANA
11:00 23.6 4.1 28 0.0 19 11   99.60     LegendNANA
12:00 24.2 4.3 28 0.0 21 12   99.52     LegendNANA
13:00 25.8 6.0 28 0.0 21 16   99.47 25   LegendNANA
14:00 25.7 6.1 28 0.0 21 19   99.42 25   LegendNANA
15:00 25.9 6.7 29 0.0 21 15   99.37 26   LegendNANA
16:00 25.9 6.9 30 0.0 22 17   99.30 26   LegendNANA
17:00 24.9 7.0 32 0.0 20 11   99.25 25   LegendNANA
18:00 24.4 7.0 33 0.0 19 12   99.21     LegendNANA
19:00 23.0 6.7 35 0.0 19 11   99.18     LegendNANA
20:00 19.1 7.3 46 0.0 18 7   99.19     LegendNANA
21:00 17.6 7.7 52 0.0 19 5   99.22     LegendNANA
22:00 17.1 7.9 54 0.0 21 5   99.21     LegendNANA
23:00 15.0 7.9 63 0.0 21 6   99.18     LegendNANA

Notes on Data Quality.

Legend

  • E = Estimated
  • M = Missing
  • NA = Not Available*
  • [empty] = Indicates an unobserved value
Date modified: